Find Starlink 31975

NORAD ID: 59886 Int'l Des: 2024-100 Owner: SPXS Country: US Constellation: starlink operational
LEOCIRCULAR

Current View

Loading 3D Globe...

About Starlink 31975

Starlink 31975 (NORAD 59886) is a starlink constellation satellite (v2 mini) launched May 28, 2024 by SPXS of US. It operates in LEO, CIRCULAR orbit with a mass of 730.00 kg.

Upcoming Passes

Passes for default location (London). Set your location on the main map for personalized predictions.

Altitude History

Loading altitude history...

Two-Line Element Set

1 59886U 24100B 26237.10640518 .00000362 00000-0 22701-4 0 9995
2 59886 43.0034 254.3061 0001380 275.3142 84.7552 15.27576859126914
Epoch: Aug 25, 2026 • Age: 11 hours

Current Status

Altitude 485.8 km
Apogee / Perigee N/A
Velocity 7.63 km/s
Sub-Earth Point 37.75°N, 126.24°E
Launch Date May 28, 2024
Age 2.2 years
Type internet

Technical Details

Classification Payload
Mass 730.00 kg
Dry Mass 700.00 kg
Total Mass 730.00 kg
Length 0.30 m
Diameter 4.10 m
Span 29.00 m
Shape Box + pan
Manufacturer SPXS
Bus Type Starlink V2M
Phase Status In Orbit
Owner/State SPXS/US

Most Searched